Regional Weather Roundup
Issued by NWS

Home | Current Version | Previous Version | Text Only | Print | Product List | Glossary On
Versions: 1 2 3 4 5 6 7 8 9 10 11 12 13 14 15 16 17 18 19 20 21 22 23 24 25 26 27 28 29 30 31 32 33 34 35 36 37 38 39 40 41 42 43 44 45 46 47 48 49 50
612
ASUS46 KSTO 181415
RWRCA

NORTHERN AND CENTRAL CA REGIONAL WEATHER ROUNDUP
NATIONAL WEATHER SERVICE SACRAMENTO CA
600 AM PST SAT NOV 18 2017

NOTE: FAIR INDICATES FEW OR NO CLOUDS BELOW 12,000 FEET WITH NO
SIGNIFICANT WEATHER AND/OR OBSTRUCTIONS TO VISIBILITY.

CAZ001-003-181500-
NORTHWEST AREA

CITY           SKY/WX    TMP DP  RH WIND       PRES   REMARKS
CRESCENT CITY  CLEAR     39  34  82 E3        30.24F
UKIAH          FOG       30  29  96 CALM      30.26R VSB 3/4
$$

CAZ006-505>513-181500-
BAY AREA

CITY           SKY/WX    TMP DP  RH WIND       PRES   REMARKS
SANTA ROSA     CLEAR     34  34 100 NW7       30.21R WCI  28
SAN RAFAEL     N/A       41  MM  MM MISG
NAPA           CLEAR     34  32  92 NE3       30.22R
CONCORD        CLEAR     40  37  89 SE5       30.22S
OAKLAND CITY   N/A      MM  MM  MM MISG
OAKLAND        CLEAR     39  36  89 NE5       30.22R
SAN FRAN CITY  N/A       47  MM  83 MISG
SAN FRAN ARPT  CLEAR     43  36  76 SW3       30.21S
LIVERMORE      CLEAR     41  33  73 E5        30.21S
HAYWARD        CLEAR     43  33  68 E7        30.21S
REDWOOD CITY   N/A       38  MM  92 MISG
MOFFETT ARPT   CLEAR     41  37  86 CALM      30.22S
SAN JOSE ARPT  CLEAR     41  38  89 S5        30.21S
$$
CAZ034-037-514>518-181500-
CENTRAL COAST

CITY           SKY/WX    TMP DP  RH WIND       PRES   REMARKS
WATSONVILLE    CLEAR     41  41 100 E3        30.20R
SALINAS        CLEAR     38  37  97 S5        30.19S WCI  34
MONTEREY       CLEAR     41  37  86 E6        30.18S
SAN LUIS OBISP CLEAR     43  38  82 E6        30.16R
SANTA MARIA    CLEAR     43  42  97 SE5       30.16R
$$
CAZ015-016-181500-
NORTHERN SACRAMENTO VALLEY

CITY           SKY/WX    TMP DP  RH WIND       PRES   REMARKS
REDDING        CLEAR     35  32  88 CALM      30.22S
RED BLUFF      CLEAR     38  31  76 N8        30.23S WCI  32
OROVILLE       CLEAR     37  35  92 CALM      30.23R
$$
CAZ016>018-181500-
SOUTHERN SACRAMENTO VALLEY

CITY           SKY/WX    TMP DP  RH WIND       PRES   REMARKS
AUBURN         CLEAR     43  32  65 E5        30.20R
LINCOLN        FAIR      34  32  93 CALM      30.21S
MARYSVILLE     CLEAR     41  35  79 N5        30.23R
SAC INTL ARPT  CLEAR     38  36  92 NW5       30.22R WCI  34
MATHER AIRPORT CLEAR     37  37 100 CALM      30.21R
DOWNTOWN SAC   N/A       39  MM  MM MISG
SAC EXEC ARPT  CLEAR     39  37  92 CALM      30.23R
VACAVILLE      CLEAR     39  34  82 CALM      30.23R
TRAVIS AFB     CLEAR     35  33  93 CALM      30.21R
$$
CAZ019>021-181500-
SAN JOAQUIN VALLEY

CITY           SKY/WX    TMP DP  RH WIND       PRES   REMARKS
STOCKTON       CLEAR     39  36  89 W5        30.22R
MODESTO        CLEAR     44  37  76 NW5       30.22R
MERCED         PTCLDY    41  36  82 N5        30.21S
LEMOORE        CLEAR    N/A N/A N/A NW7       30.22R
FRESNO         CLEAR     44  42  93 NW3       30.22R
HANFORD        CLEAR     41  39  93 NW3       30.22R
PORTERVILLE    CLEAR     42  41  96 CALM      30.21R FOG
BAKERSFIELD    CLOUDY    52  49  89 CALM      30.19S FOG
$$
CAZ011-012-071-181500-
NORTHERN MOUNTAINS

CITY           SKY/WX    TMP DP  RH WIND       PRES   REMARKS
YREKA          CLEAR     20  17  88 CALM      30.31R
MOUNT SHASTA   CLEAR     22  19  89 E3        30.25R
ALTURAS        CLEAR     19  16  88 NE6       30.26F WCI  11
$$
CAZ011-012-071-181500-
SIERRA NEVADA MTNS

CITY           SKY/WX    TMP DP  RH WIND       PRES   REMARKS
BLUE CANYON    CLEAR     44   9  23 CALM      30.21S
TAHOE VLY ARPT PTCLDY    19  16  88 S5        30.28R WCI  12
MAMMOTH LAKES  FAIR      17  14  87 NW3       30.30S
$$




USA.gov is the U.S. government's official web portal to all federal, state and local government web resources and services.